Spokane, WA

5:18 PM PDT on September 16, 2019 (GMT -0700)
Spokane International

Weather History for KGEG - August, 2019

Change the Weather History Date:

Saturday, August 24, 2019

  Actual Average Record
Temperature  
Mean Temperature 72 °F 68 °F  
Max Temperature 81 °F 81 °F 100 °F (1966)
Min Temperature 62 °F 54 °F 40 °F (1992)
Degree Days  
Heating Degree Days 0 1  
Month to date heating degree days 3 19  
Since 1 June heating degree days 107 187  
Since 1 July heating degree days 11 51  
Cooling Degree Days 7 4  
Month to date cooling degree days 193 143  
Year to date cooling degree days 446 386  
Since 1 June cooling degree days 432 372  
Growing Degree Days 22 (Base 50)    
Moisture  
Dew Point 43 °F    
Average Humidity 40    
Maximum Humidity 56    
Minimum Humidity 23    
Precipitation  
Precipitation 0.00 in 0.01 in 0.89 in (1989)
Month to date precipitation 0.46 0.44  
Year to date precipitation 9.10 9.96  
Snow  
Snow 0.00 in 0.00 in 0.00 in (2002)
Month to date snowfall 0.0 0.0  
Since 1 June snowfall 0.0 0.0  
Since 1 July snowfall 0.0 0.0  
Snow Depth 0.00 in    
Sea Level Pressure  
Sea Level Pressure 29.81 in    
Wind  
Wind Speed 12 mph (SW)    
Max Wind Speed 26 mph    
Max Gust Speed 34 mph    
Visibility 10 miles    
Events      
T = Trace of Precipitation, MM = Missing Value Source: NWS Daily Summary

Daily Weather History Graph

Daily Weather History Graph

Search for Another Location

Airport or City:

Astronomy

Aug. 24, 2019 Rise Set
Actual Time 5:57 AM PDT 7:46 PM PDT
Civil Twilight 5:24 AM PDT 8:18 PM PDT
Nautical Twilight 4:44 AM PDT 8:58 PM PDT
Astronomical Twilight 4:00 AM PDT 9:42 PM PDT
Moon No Moon Rise 3:19 PM PDT (8/24)
Length of Visible Light 14h 53m
Length of Day
13h 48m
Last Quarter, 38% of the Moon is Illuminated
Aug 24
Last Quarter
Aug 30
New
Sep 5
First Quarter
Sep 13
Full
Sep 21
Last Quarter

Hourly Weather History & Observations

Time (PDT) Temp. Dew Point Humidity Pressure Visibility Wind Dir Wind Speed Gust Speed Precip Events Conditions
12:53 AM 66.9 °F 46.0 °F 47% 29.79 in 10.0 mi Calm Calm - N/A   Mostly Cloudy
1:53 AM 66.0 °F 46.0 °F 48% 29.80 in 10.0 mi SW 4.6 mph - N/A   Mostly Cloudy
2:53 AM 66.0 °F 46.0 °F 48% 29.79 in 10.0 mi Calm Calm - N/A   Mostly Cloudy
3:53 AM 64.9 °F 46.0 °F 50% 29.78 in 10.0 mi Calm Calm - N/A   Overcast
4:53 AM 64.0 °F 46.9 °F 54% 29.78 in 10.0 mi SE 3.5 mph - N/A   Overcast
5:53 AM 63.0 °F 46.9 °F 56% 29.78 in 10.0 mi SE 6.9 mph - N/A   Overcast
6:53 AM 63.0 °F 46.9 °F 56% 29.80 in 10.0 mi South 8.1 mph - N/A   Mostly Cloudy
7:53 AM 64.9 °F 46.0 °F 50% 29.79 in 10.0 mi South 13.8 mph - N/A   Mostly Cloudy
8:53 AM 68.0 °F 46.0 °F 45% 29.81 in 10.0 mi SSW 16.1 mph - N/A   Scattered Clouds
9:53 AM 70.0 °F 46.9 °F 44% 29.80 in 10.0 mi SSW 13.8 mph - N/A   Scattered Clouds
10:53 AM 73.9 °F 45.0 °F 35% 29.80 in 10.0 mi WSW 17.3 mph - N/A   Mostly Cloudy
11:53 AM 78.1 °F 39.0 °F 25% 29.82 in 10.0 mi West 21.9 mph - N/A   Mostly Cloudy
12:53 PM 79.0 °F 37.9 °F 23% 29.81 in 10.0 mi SW 16.1 mph 29.9 mph N/A   Mostly Cloudy
1:53 PM 79.0 °F 41.0 °F 26% 29.81 in 10.0 mi West 13.8 mph 33.4 mph N/A   Mostly Cloudy
2:53 PM 81.0 °F 41.0 °F 24% 29.81 in 10.0 mi WSW 23.0 mph 28.8 mph N/A   Mostly Cloudy
3:53 PM 80.1 °F 39.9 °F 24% 29.81 in 10.0 mi West 17.3 mph 29.9 mph N/A   Mostly Cloudy
4:53 PM 79.0 °F 39.0 °F 24% 29.81 in 10.0 mi SW 17.3 mph 25.3 mph N/A   Mostly Cloudy
5:53 PM 79.0 °F 39.0 °F 24% 29.82 in 10.0 mi WSW 15.0 mph 24.2 mph N/A   Partly Cloudy
7:53 PM 75.0 °F 41.0 °F 29% 29.82 in 10.0 mi SW 15.0 mph - N/A   Scattered Clouds
8:53 PM 71.1 °F 39.0 °F 31% 29.83 in 10.0 mi SW 11.5 mph - N/A   Scattered Clouds
9:53 PM 69.1 °F 41.0 °F 36% 29.83 in 10.0 mi WSW 12.7 mph - N/A   Partly Cloudy
10:53 PM 66.0 °F 43.0 °F 43% 29.83 in 10.0 mi SW 9.2 mph - N/A   Clear
11:53 PM 64.0 °F 43.0 °F 46% 29.82 in 10.0 mi WSW 10.4 mph - N/A   Partly Cloudy